[[{"header":{"parameterUnit":"m.s-1","parameterCategory":1,"la1":30.2991,"la2":30.254,"lo1":-89.0895,"lo2":-89.0444,"dy":0.0017,"dx":0.0017,"nx":28,"ny":28,"refTime":"2025-08-20T03:00:00:Z","depth":0,"parameterNumber":2,"parameterNumberName":"U-component_of_WINDS"},"data":[0,0,0,0,0,0,0,0,0,0,0,0,0,0,0,0,0,0,0,0,0,0,0,0,0,0,0,0,0,0,0,0,0,0,0,0,0,0,0,0,0,0,0,0,0,0,0,0,0,0,0,0,0,0,0,0,0,0,0.9288,0.9289,0,0.9321,0.9321,0.9321,0.9281,0.9279,0.9278,0.9276,0.9315,0.9317,0.932,0,0,0,0,0,0,0,0,0,0,0,0,0,0.9196,0.9198,0.9288,0.9289,0.9289,0.9321,0.9321,0.9321,0.9281,0.9279,0.9277,0.9275,0.9314,0.9317,0.932,0,0,0,0,0,0,0,0,0,0,0,0,0,0.9233,0.9198,0.9288,0.9272,0.9271,0.932,0.9321,0.9322,0.9281,0.9279,0.9277,0.9275,0.9313,0.9317,0.932,0.9388,0,0,0.9332,0.9333,0,0,0,0,0,0,0,0,0.9231,0.9237,0.9274,0.9274,0.9272,0.9294,0.9303,0.9344,0.9282,0.9278,0.9276,0.9273,0.931,0.9314,0.9325,0.939,0.9392,0.9332,0.9334,0.9336,0.9337,0,0,0,0,0,0,0,0.9229,0.9235,0.9301,0.9275,0.9274,0.9265,0.9268,0.931,0.9307,0.9278,0.9275,0.9279,0.9309,0.9322,0.9326,0.9392,0.9332,0.9335,0.9337,0.9339,0.9515,0.9517,0,0,0,0,0,0,0.9227,0.9233,0.93,0.9302,0.9245,0.9269,0.9272,0.929,0.9306,0.9306,0.9281,0.9277,0.9317,0.9322,0.9327,0.9407,0.9336,0.9339,0.9341,0.9512,0.9515,0.9518,0,0,0,0,0,0,0.9225,0.9233,0.9299,0.9267,0.9274,0.9273,0.9293,0.9291,0.9304,0.9308,0.9308,0.9294,0.9315,0.9322,0.9373,0.9408,0.9341,0.9344,0.9509,0.9513,0.9517,0.9569,0,0,0,0,0,0,0.9223,0.9233,0.9258,0.9268,0.9276,0.9343,0.9295,0.9294,0.9309,0.9305,0.932,0.9321,0.9314,0.9368,0.9377,0.9412,0.9347,0.9506,0.9511,0.9516,0.9564,0.9574,0.9583,0,0,0,0,0,0.922,0.9272,0.9259,0.9267,0.9307,0.9345,0.935,0.9339,0.9312,0.9338,0.9341,0.932,0.9403,0.9373,0.9383,0.942,0.9504,0.951,0.9515,0.956,0.9572,0.9582,0,0,0,0,0,0,0.9269,0.9273,0.9259,0.9316,0.933,0.9338,0.937,0.9353,0.9376,0.9371,0.9358,0.9362,0.9417,0.9424,0.939,0.9487,0.9449,0.9457,0.948,0.9492,0.9501,0.9498,0.935,0,0,0,0,0,0.9286,0.9315,0.9318,0.9368,0.9376,0.9372,0.9388,0.9378,0.9393,0.94,0.9406,0.9423,0.9452,0.9472,0.95,0.9565,0.9568,0.9595,0.9604,0.9612,0.9619,0.9654,0.9666,0.9536,0.9536,0.9536,0,0,0.9322,0.9328,0.9348,0.9378,0.9388,0.942,0.9377,0.9412,0.9436,0.9406,0.9453,0.9459,0.9477,0.9535,0.9561,0.9543,0.9656,0.9619,0.9625,0.9628,0.9661,0.9673,0.9684,0.954,0.9539,0.9539,0,0,0.9404,0.9412,0.9454,0.9464,0.9479,0.9476,0.9486,0.9496,0.9498,0.9546,0.9523,0.9552,0.9604,0.9617,0.9631,0.9718,0.97,0.9727,0.9776,0.981,0.982,0.9829,0.986,0.9872,0.9734,0.9735,0.9735,0,0.9448,0.9493,0.9479,0.9515,0.953,0.9501,0.9545,0.9556,0.958,0.9592,0.957,0.9633,0.9643,0.9704,0.9725,0.9737,0.975,0.9726,0.9819,0.9828,0.9837,0.9866,0.9878,0.9738,0.9737,0.9737,0.9737,0,0.9547,0.9578,0.9611,0.9632,0.9651,0.9691,0.9684,0.9704,0.9693,0.9693,0.9742,0.9753,0.9782,0.9796,0.9786,0.9855,0.9843,0.9821,0.9783,0.9852,0.988,0.9891,0.9742,0.9741,0.974,0.9739,0,0,0.9661,0.9673,0.9685,0.9695,0.9709,0.9734,0.9773,0.9799,0.9817,0.9835,0.9868,0.9912,0.9891,0.9907,0.9898,0.9928,0.9996,0.9902,0.9902,0.9919,1.0074,1.0091,1.0104,0.9985,0.9987,0.9988,1.0072,0,0.9743,0.9809,0.9797,0.9861,0.9891,0.9864,0.9899,0.9912,0.9912,0.9939,0.994,0.9971,0.9941,0.995,0.9979,0.9982,1.0027,0.9976,1.0017,1.0018,1.0013,1.0118,1.0137,1.0215,1.0083,1.0085,1.0086,0,0.9848,0.9867,0.9934,0.9943,0.9955,0.9986,1.0009,1.0034,1.0049,1.0047,1.0064,1.005,1.0091,1.0052,1.0108,1.0073,1.0089,1.0094,1.0096,1.01,1.0057,1.0125,1.024,1.0252,1.0103,1.0102,1.0101,0,0.9925,0.9967,1.0013,1.0022,1.0033,1.0056,1.0062,1.0074,1.0091,1.0112,1.0123,1.0149,1.0164,1.0185,1.0179,1.0151,1.0237,1.0197,1.0238,1.0238,1.0257,1.0256,1.0377,1.0267,1.0267,1.0267,1.0267,0,1.0018,1.006,1.0047,1.0076,1.0122,1.0109,1.0156,1.0159,1.017,1.02,1.0179,1.0207,1.0197,1.0226,1.0221,1.0269,1.0276,1.0277,1.0275,1.0279,1.0278,1.0289,1.0284,1.027,1.0269,1.0269,1.0268,0,1.0111,1.0105,1.0152,1.0159,1.0161,1.0196,1.0202,1.0229,1.0228,1.0265,1.0273,1.0272,1.0304,1.03,1.0336,1.0333,1.0392,1.0384,1.0387,1.0385,1.0426,1.0422,1.0557,1.0574,1.0454,1.0455,1.0456,0,1.0171,1.0203,1.0212,1.0229,1.0236,1.0265,1.0281,1.0269,1.0287,1.0306,1.0331,1.0361,1.0384,1.0437,1.044,1.0468,1.0461,1.0506,1.0465,1.0467,1.0462,1.046,1.0463,1.0515,1.0516,1.0517,1.0518,0,1.0278,1.0273,1.0296,1.0319,1.0338,1.0356,1.0372,1.0387,1.0377,1.0399,1.043,1.0448,1.0484,1.0515,1.0541,1.0549,1.0533,1.0531,1.0542,1.0546,1.0546,1.0546,1.0409,1.0528,1.0527,1.0526,1.0526,1.0525,1.0357,1.0383,1.0394,1.0421,1.0431,1.0446,1.0471,1.0472,1.0498,1.0525,1.0517,1.0553,1.0567,1.06,1.0611,1.064,1.0623,1.0639,1.0643,1.0647,1.0652,1.0541,1.0645,1.0644,1.0644,1.0644,1.0644,0,1.0463,1.0468,1.0492,1.0514,1.0535,1.0516,1.0532,1.0552,1.0583,1.0597,1.062,1.0656,1.0685,1.069,1.0718,1.0741,1.0734,1.0749,1.0747,1.0749,1.0665,1.0653,1.0754,1.0754,1.0754,1.0753,1.0753,1.0753,1.052,1.0564,1.056,1.0609,1.0615,1.0648,1.0659,1.0673,1.0684,1.0725,1.0748,1.0751,1.0762,1.079,1.0816,1.0817,1.0829,1.0847,1.0845,1.0766,1.0755,1.0745,1.0733,1.0849,1.0849,1.0926,1.0927,1.0928]},{"header":{"parameterUnit":"m.s-1","parameterCategory":1,"la1":30.2991,"la2":30.254,"lo1":-89.0895,"lo2":-89.0444,"dy":0.0017,"dx":0.0017,"nx":28,"ny":28,"refTime":"2025-08-20T03:00:00:Z","depth":0,"parameterNumber":3,"parameterNumberName":"V-component_of_WINDS"},"data":[0,0,0,0,0,0,0,0,0,0,0,0,0,0,0,0,0,0,0,0,0,0,0,0,0,0,0,0,0,0,0,0,0,0,0,0,0,0,0,0,0,0,0,0,0,0,0,0,0,0,0,0,0,0,0,0,0,0,1.1226,1.1225,0,1.1148,1.1147,1.1146,1.1062,1.1061,1.106,1.1058,1.0978,1.0977,1.0976,0,0,0,0,0,0,0,0,0,0,0,0,0,1.13,1.1299,1.1226,1.1225,1.1224,1.1148,1.1147,1.1146,1.1062,1.1061,1.1059,1.1058,1.0978,1.0977,1.0976,0,0,0,0,0,0,0,0,0,0,0,0,0,1.1249,1.1298,1.1226,1.1173,1.1167,1.1149,1.1147,1.1146,1.1063,1.1061,1.1059,1.1057,1.0978,1.0977,1.0975,1.1002,0,0,1.0971,1.097,0,0,0,0,0,0,0,0,1.1252,1.1247,1.1182,1.1176,1.117,1.1113,1.1144,1.1098,1.1063,1.1102,1.1058,1.1056,1.1024,1.1019,1.1008,1.0998,1.0995,1.0971,1.097,1.0969,1.0969,0,0,0,0,0,0,0,1.1256,1.125,1.1195,1.1181,1.1174,1.1152,1.1143,1.1134,1.1074,1.1099,1.1092,1.1084,1.1021,1.101,1.1006,1.0994,1.0971,1.0969,1.0968,1.0968,1.1002,1.1003,0,0,0,0,0,0,1.1268,1.1253,1.1197,1.1193,1.1208,1.1153,1.1142,1.1133,1.1074,1.1063,1.1086,1.1081,1.1013,1.1007,1.1002,1.1029,1.0969,1.0968,1.0967,1.1,1.1002,1.1004,0,0,0,0,0,0,1.127,1.1263,1.12,1.1221,1.1211,1.1153,1.1144,1.1133,1.1122,1.1065,1.1053,1.1086,1.1012,1.1005,1.1003,1.1025,1.0967,1.0966,1.0998,1.1,1.1003,1.1084,0,0,0,0,0,0,1.1272,1.1265,1.1275,1.1222,1.1211,1.1203,1.1145,1.1132,1.1119,1.1112,1.1062,1.1052,1.101,1.1006,1.1001,1.1022,1.0964,1.0995,1.0999,1.1002,1.1079,1.1089,1.1098,0,0,0,0,0,1.1275,1.13,1.1276,1.1269,1.1222,1.1204,1.1198,1.115,1.1122,1.1131,1.1094,1.1053,1.1024,1.1006,1.1001,1.1021,1.0994,1.0998,1.1002,1.1075,1.1087,1.1098,0,0,0,0,0,0,1.1356,1.1292,1.1264,1.1273,1.1245,1.119,1.12,1.1164,1.1143,1.1137,1.1077,1.1066,1.1072,1.1046,1.1028,1.1044,1.1003,1.1006,1.106,1.1072,1.1081,1.1087,1.0963,0,0,0,0,0,1.1376,1.1367,1.1311,1.1325,1.1312,1.1259,1.125,1.1215,1.1183,1.117,1.1134,1.1104,1.1088,1.1078,1.106,1.1075,1.1063,1.1087,1.1096,1.1104,1.1107,1.1113,1.1123,1.1017,1.1017,1.1017,0,0,1.1415,1.1379,1.1377,1.134,1.1314,1.1307,1.1249,1.1244,1.1237,1.1169,1.1165,1.1138,1.11,1.1107,1.1108,1.1086,1.1134,1.1109,1.1116,1.1115,1.1118,1.1128,1.1137,1.102,1.102,1.1019,0,0,1.1482,1.1454,1.1462,1.1438,1.1399,1.1364,1.1366,1.1316,1.1295,1.1291,1.124,1.1231,1.1205,1.118,1.1164,1.1223,1.1184,1.1219,1.1267,1.1274,1.1282,1.1289,1.1309,1.1317,1.1222,1.1222,1.1222,0,1.1535,1.1522,1.1471,1.1468,1.1453,1.1392,1.14,1.1378,1.1336,1.1327,1.1303,1.1268,1.1239,1.1239,1.1253,1.1243,1.1243,1.1224,1.1285,1.1291,1.1297,1.1316,1.1324,1.1227,1.1226,1.1226,1.1225,0,1.1589,1.1581,1.1592,1.1553,1.1539,1.1542,1.1491,1.1483,1.145,1.1417,1.1413,1.1375,1.1349,1.1346,1.1313,1.1342,1.1329,1.1296,1.1253,1.1313,1.1329,1.1336,1.1233,1.1231,1.123,1.1229,0,0,1.1705,1.1638,1.1643,1.1625,1.1578,1.157,1.157,1.1544,1.1539,1.1512,1.1509,1.1489,1.1458,1.144,1.1404,1.141,1.1458,1.1375,1.1373,1.1392,1.1486,1.1511,1.152,1.1432,1.1433,1.1434,1.1489,0,1.1763,1.1759,1.1714,1.1722,1.1714,1.1656,1.1655,1.1627,1.1596,1.1584,1.1549,1.1536,1.1496,1.1485,1.1488,1.1451,1.1476,1.1447,1.1429,1.1429,1.144,1.1529,1.1555,1.1608,1.1495,1.1496,1.1497,0,1.1831,1.1809,1.1817,1.177,1.1765,1.1766,1.1738,1.1728,1.1694,1.1671,1.1651,1.1611,1.1606,1.1567,1.156,1.1541,1.1531,1.1512,1.1513,1.1509,1.1466,1.1527,1.1624,1.1632,1.1507,1.1506,1.1505,0,1.1914,1.1886,1.1887,1.1873,1.1819,1.1821,1.1798,1.1762,1.175,1.1726,1.1717,1.1694,1.168,1.1662,1.1616,1.1592,1.1614,1.1571,1.1595,1.1596,1.1601,1.1602,1.1698,1.1596,1.1596,1.1596,1.1596,0,1.1984,1.1991,1.1924,1.1925,1.1931,1.1878,1.1886,1.1857,1.1826,1.182,1.1768,1.1763,1.1703,1.1691,1.1655,1.1654,1.1649,1.163,1.162,1.1634,1.1637,1.1626,1.1621,1.1598,1.1598,1.1597,1.1597,0,1.2077,1.2033,1.203,1.1979,1.1967,1.1974,1.1929,1.1928,1.1894,1.1887,1.1882,1.1829,1.1813,1.1765,1.1736,1.1712,1.1722,1.1704,1.1734,1.1727,1.1753,1.1752,1.1847,1.1856,1.1749,1.175,1.1751,0,1.2124,1.2129,1.2079,1.2071,1.2051,1.204,1.2027,1.1975,1.1964,1.1926,1.1929,1.1908,1.1889,1.1865,1.1824,1.1801,1.1782,1.1817,1.1778,1.1792,1.1782,1.1782,1.1782,1.1825,1.1826,1.1828,1.1829,0,1.2213,1.2191,1.2175,1.2152,1.2138,1.2117,1.2093,1.2089,1.2031,1.2021,1.2004,1.1989,1.196,1.194,1.1911,1.1887,1.1848,1.1841,1.1845,1.186,1.1877,1.1868,1.1756,1.1839,1.1838,1.1837,1.1837,1.1836,1.2284,1.2285,1.225,1.2234,1.2211,1.219,1.2186,1.2152,1.2137,1.211,1.208,1.2066,1.2032,1.1989,1.1968,1.1956,1.1935,1.1941,1.1943,1.1945,1.1952,1.1879,1.195,1.195,1.195,1.1949,1.1949,0,1.2369,1.2344,1.233,1.2299,1.2286,1.2251,1.2223,1.2214,1.2203,1.2175,1.2157,1.2138,1.2118,1.2076,1.2052,1.2051,1.2032,1.2046,1.2046,1.2041,1.1971,1.197,1.2062,1.2062,1.2062,1.2062,1.2062,1.2062,1.2412,1.2413,1.2387,1.2374,1.2349,1.2336,1.2322,1.2302,1.2279,1.226,1.2244,1.2217,1.2182,1.2156,1.2136,1.2124,1.2118,1.2138,1.212,1.2056,1.2045,1.2035,1.2034,1.2137,1.2137,1.219,1.219,1.2191]}]]